Regional Weather Roundup
Issued by NWS

Home | Current Version | Previous Version | Text Only | Print | Product List | Glossary Off
Versions: 1 2 3 4 5 6 7 8 9 10 11 12 13 14 15 16 17 18 19 20 21 22 23 24 25 26 27 28 29 30 31 32 33 34 35 36 37 38 39 40 41 42 43 44 45 46 47 48 49 50

000
ASUS43 KFSD 041202
RWRSD

WEATHER ROUNDUP FOR SOUTH DAKOTA
NATIONAL WEATHER SERVICE SIOUX FALLS SD
700 AM CDT TUE AUG 04 2015

NOTE: "FAIR" INDICATES FEW OR NO CLOUDS BELOW 12,000 FEET WITH NO
SIGNIFICANT WEATHER AND/OR OBSTRUCTIONS TO VISIBILITY.


SDZ001>005-009-010-012>017-041300-
NORTHWEST AND NORTH CENTRAL SOUTH DAKOTA

CITY           SKY/WX    TMP DP  RH WIND       PRES   REMARKS
FAITH            N/A     65  55  70 SE8       29.92S
MOBRIDGE       MOCLDY    61  56  83 E10       29.95F
$$

SDZ012>016-024>037-041>051-057-063-072>074-041300-
SOUTHWEST AND SOUTH CENTRAL SOUTH DAKOTA

CITY           SKY/WX    TMP DP  RH WIND       PRES   REMARKS
RAPID CTY ARPT MOCLDY    63  58  83 S3        29.97R
PIERRE         CLOUDY    65  57  75 E5        29.95F
CUSTER         PTCLDY    56  53  90 NE8       30.06S
ELLSWORTH AFB  CLOUDY    65  59  82 S7        29.95R
PHILIP         CLOUDY    66  62  87 SE16G22   29.90F
PINE RIDGE     CLOUDY    65  62  90 E12       29.95R
WINNER         LGT RAIN  65  61  87 S8        30.00F
$$

SDZ004>011-016>023-039-040-041300-
NORTHEAST SOUTH DAKOTA

CITY           SKY/WX    TMP DP  RH WIND       PRES   REMARKS
ABERDEEN       MOCLDY    56  51  84 CALM      30.02R
WATERTOWN      MOCLDY    56  50  80 CALM      30.04R
BROOKINGS      CLOUDY    54  48  82 CALM      30.06R
$$

SDZ017-020-022-023-036>040-048>070-041300-
SOUTHEAST SOUTH DAKOTA

CITY           SKY/WX    TMP DP  RH WIND       PRES   REMARKS
SIOUX FALLS    CLOUDY    60  56  86 NE3       30.03R
HURON          CLOUDY    60  54  80 SE5       30.00R
CHAMBERLAIN    LGT RAIN  64  63  96 SW7       30.00S
MITCHELL       CLOUDY    62  60  93 CALM      30.02R
YANKTON        CLOUDY    64  63  94 CALM      30.01R
$$

ABBREVIATIONS USED IN REMARKS
   TC - TEMPERATURE IN CELSIUS
  WCI - WIND CHILL INDEX
   HX - HEAT INDEX
  VSB - VISIBILITY



USA.gov is the U.S. government's official web portal to all federal, state and local government web resources and services.